Regional Weather Roundup
Issued by NWS

Home | Current Version | Previous Version | Text Only | Print | Product List | Glossary Off
Versions: 1 2 3 4 5 6 7 8 9 10 11 12 13 14 15 16 17 18 19 20 21 22 23 24 25 26 27 28 29 30 31 32 33 34 35 36 37 38 39 40 41 42 43 44 45 46 47 48 49 50

000
ASUS43 KOAX 262002
RWRNE

WEATHER ROUNDUP FOR NEBRASKA
NATIONAL WEATHER SERVICE OMAHA NE
300 PM CDT THU MAY 26 2016

NOTES: SATELLITE DATA IS BEING USED TO AUGMENT CLOUD COVER ABOVE
       12000 FEET.
       "FAIR" INDICATES FEW OR NO CLOUDS BELOW 12,000 FEET WITH NO
       SIGNIFICANT WEATHER AND/OR OBSTRUCTIONS TO VISIBILITY.

  * THESE STATIONS DO NOT REPORT WEATHER SUCH AS RAIN...SNOW OR FOG.

NEZ001>004-019>022-054>056-262100-
NEBRASKA PANHANDLE

CITY           SKY/WX    TMP DP  RH WIND       PRES   REMARKS
SCOTTSBLUFF    FAIR      68  41  37 S6        29.89F
ALLIANCE       PTSUNNY   69  41  36 CALM      29.88F
CHADRON        PTSUNNY   71  41  33 NW9       29.88F
SIDNEY         CLOUDY    68  45  43 N14       29.90F
$$

NEZ057>060-069>072-079>082-262100-
SOUTHWEST NEBRASKA

CITY           SKY/WX    TMP DP  RH WIND       PRES   REMARKS
NORTH PLATTE   FAIR      77  47  34 E13G22    29.82F
IMPERIAL       FAIR      75  46  35 NE16G26   29.81F
LEXINGTON      FAIR      73  60  61 NE13G18   29.80F
MCCOOK         FAIR      74  56  53 E17G24    29.77F
$$

NEZ005>010-023>029-035>040-094-262100-
NORTH CENTRAL NEBRASKA

CITY           SKY/WX    TMP DP  RH WIND       PRES   REMARKS
VALENTINE      FAIR      75  46  35 SW10      29.84F
AINSWORTH      FAIR      70  50  48 S3        29.85F
BROKEN BOW     FAIR      76  47  35 VRB5      29.83F
ORD            FAIR      77  51  40 VRB6      29.81F
$$

NEZ041-046>049-061>064-073>077-083>087-262100-
SOUTH CENTRAL NEBRASKA

CITY           SKY/WX    TMP DP  RH WIND       PRES   REMARKS
GRAND ISLAND   FAIR      72  59  63 NE9       29.80F
HASTINGS       PTSUNNY   74  58  57 NE14      29.77S
KEARNEY *      FAIR      77  57  50 NE13      29.78F
YORK           FAIR      72  57  60 NE12      29.78S
$$

NEZ011>018-030>034-042>045-262100-
NORTHEAST NEBRASKA

CITY           SKY/WX    TMP DP  RH WIND       PRES   REMARKS
NORFOLK        FAIR      79  51  37 E9        29.76F
ALBION         FAIR      79  51  36 E8        29.77F
BLAIR          FAIR      78  59  51 NE9       29.76F
FREMONT        FAIR      78  54  43 NE7       29.79F
TEKAMAH        FAIR      82  60  47 N13       29.78F
$$

NEZ050>053-065>068-078-088>093-262100-
SOUTHEAST NEBRASKA

CITY           SKY/WX    TMP DP  RH WIND       PRES   REMARKS
LINCOLN        TSTM      74  69  85 SE6       29.79R
OMAHA EPPLEY   PTSUNNY   81  60  48 NE9       29.74F
FALLS CITY     CLOUDY    71  66  84 SE13      29.75F
PLATTSMOUTH    PTSUNNY   80  69  68 E7        29.76F
$$

NEZ044-045-051>053-067-262100-
OMAHA AREA

CITY           SKY/WX    TMP DP  RH WIND       PRES   REMARKS
OMAHA EPPLEY   PTSUNNY   81  60  48 NE9       29.74F
BLAIR          FAIR      78  59  51 NE9       29.76F
FREMONT        FAIR      78  54  43 NE7       29.79F
OFFUTT AFB     FAIR      79  66  64 E9        29.75F
PLATTSMOUTH    PTSUNNY   80  69  68 E7        29.76F
$$



USA.gov is the U.S. government's official web portal to all federal, state and local government web resources and services.